Regional Weather Roundup
Issued by NWS Newport/Morehead, NC

Current Version | Previous Version | Text Only | Print | Product List | Glossary Off
Versions: 1 2 3 4 5 6 7 8 9 10 11 12 13 14 15 16 17 18 19 20 21 22 23 24 25 26 27 28 29 30 31 32 33 34 35 36 37 38 39 40 41 42 43 44 45 46 47 48 49 50
000 ASUS42 KMHX 220313 RWRMHX WEATHER ROUNDUP FOR EASTERN NORTH CAROLINA NATIONAL WEATHER SERVICE NEWPORT/MOREHEAD CITY NC 1100 PM EDT THU SEP 21 2017 NOTE: "FAIR" INDICATES FEW OR NO CLOUDS BELOW 12,000 FEET WITH NO SIGNIFICANT WEATHER AND/OR OBSTRUCTIONS TO VISIBILITY NCZ015>017-031-032-045>047-102-103-220400- NORTH COAST CITY SKY/WX TMP DP RH WIND PRES REMARKS EDENTON CLEAR 72 69 90 CALM 30.06S ELIZABETH CITY CLEAR 70 68 93 E5 30.06R KITTY HAWK CLEAR 70 64 81 CALM 30.04R MANTEO CLEAR 71 66 84 CALM 30.06R $$ NCZ045>047-081-094-103-104-220400- CENTRAL COAST CITY SKY/WX TMP DP RH WIND PRES REMARKS FRISCO PTCLDY 71 68 90 E3 30.05R $$ NCZ095-097-098-100-101-220400- SOUTHERN COAST CITY SKY/WX TMP DP RH WIND PRES REMARKS BEAUFORT CLEAR 70 69 97 CALM 30.05R CEDAR ISLAND NOT AVBL JACKSONVILLE CLOUDY 70 70 100 W5 30.04R PINEY ISLAND N/A N/A N/A N/A E6 30.04S WILMINGTON MOCLDY 70 68 93 CALM 30.04S $$ NCZ011>013-027>030-043-044-078>080-089-090>093-098-220400- COASTAL PLAIN CITY SKY/WX TMP DP RH WIND PRES REMARKS AHOSKIE CLEAR 68 68 100 CALM 30.06R CLINTON CLEAR 68 68 100 CALM 30.06R ELIZABETHTOWN NOT AVBL GOLDSBORO CLEAR 71 71 100 CALM 30.03S GREENVILLE CLEAR 70 70 100 CALM 30.06S FOG HAVELOCK NOT AVBL KENANSVILLE CLEAR 66 66 100 CALM 30.06R FOG KINSTON N/A 68 68 98 CALM 30.05S FOG NEW BERN CLEAR 68 67 96 CALM 30.06R RICHLANDS CLEAR 68 67 96 CALM 30.05R FOG ROCKY MOUNT PTCLDY 70 70 100 CALM 30.05S FOG WASHINGTON CLEAR 71 69 94 SE3 30.05S WHITEVILLE PTCLDY 69 67 95 CALM 30.03S $$ AMZ130-135-150-152-154-156-158-170-250-252-270-ANZ085-086-088-633-658-670-220400- MARINE OBSERVATIONS STATION/POSITION TIME TEMP WIND PRES WAVE SWELL AIR SEA DIR/SP/G HT/PER HT/PER (UTC) (F) (DEG/KT/KT) (MB) (FT/S) (FT/S) CHESAPEAKE LIGHT NOT AVBL 64 E VA BEACH 0250 70 70 340/ 4/ 6 1017.7 7/11 7/11 DUCK 0242 73 75 80/ 6/ 7 1017.4 2 E DUCK 0300 76 N/A 4/10 2/11 OREGON INLET 0242 73 78 50/ 4/ 6 1017.5 13E OREGON INLT 0218 74 N/A 5/ 9 5/ 9 HATTERAS CG 0242 74 78 80/ 3/ 3 1017.6 DIAMOND BUOY 0250 75 75 50/ 6/ 6 1017.4 5/10 5/10 CAPE LOOKOUT 0300 76 20/ 5/ 5 1017.1 BEAUFORT LAB 0242 73 77 30/ 3/ 5 1016.8 30 SE NEW RVR IN 0208 78 360/ 2/ 6 1016.6 30 SE NEW RVR IN NOT AVBL 27 SE WRIGHTSVLE 0208 78 80 110/ 4/ 8 1016.5 5 SE WRIGHTSVLE 0208 75 78 70/ 4/ 6 1016.1 225 S CAPE HAT 0250 78 81 180/ 4/ 6 1016.9 5/11 5/11 41 SE CHARLESTON 0250 80 82 120/ 4/ 4 1016.3 2/11 2/11 $$

USA.gov is the U.S. government's official web portal to all federal, state and local government web resources and services.